This is the latest recevied weather packets stored in our database for station/object 9W8AKN-13. If no packets are shown the sender has not sent any weather packets the latest 10 day(s).
| Time | Temp. | Humidity | Pressure | Rain* | Wind** | Luminosity | Snow |
|---|---|---|---|---|---|---|---|
| 1788064637 | 30° C | 80% | 1011.2 hPa | - | - | - | - |
| 1788063736 | 30° C | 80% | 1011.4 hPa | - | - | - | - |
| 1788062836 | 30° C | 81% | 1011.8 hPa | - | - | - | - |
| 1788061936 | 30° C | 81% | 1012.1 hPa | - | - | - | - |
| 1788061036 | 29.44° C | 81% | 1012.2 hPa | - | - | - | - |
| 1788060136 | 29.44° C | 82% | 1012.4 hPa | - | - | - | - |
| 1788058337 | 28.89° C | 82% | 1012.6 hPa | - | - | - | - |
| 1788057437 | 28.89° C | 82% | 1012.7 hPa | - | - | - | - |
| 1788056537 | 28.89° C | 83% | 1012.8 hPa | - | - | - | - |
| 1788055637 | 28.89° C | 83% | 1012.9 hPa | - | - | - | - |
| 1788054737 | 28.33° C | 84% | 1013.1 hPa | - | - | - | - |
| 1788053837 | 28.33° C | 84% | 1013.2 hPa | - | - | - | - |
| 1788052937 | 28.33° C | 84% | 1013.1 hPa | - | - | - | - |
| 1788052037 | 27.78° C | 85% | 1013.3 hPa | - | - | - | - |
| 1788051136 | 27.78° C | 85% | 1013.2 hPa | - | - | - | - |
| 1788050236 | 27.78° C | 85% | 1013.1 hPa | - | - | - | - |
| 1788049336 | 27.78° C | 86% | 1013.1 hPa | - | - | - | - |
| 1788048436 | 27.78° C | 86% | 1012.9 hPa | - | - | - | - |
| 1788047536 | 27.22° C | 86% | 1012.8 hPa | - | - | - | - |
| 1788046636 | 27.22° C | 86% | 1012.5 hPa | - | - | - | - |
| 1788045736 | 27.22° C | 86% | 1012.4 hPa | - | - | - | - |
| 1788044836 | 27.22° C | 86% | 1012.3 hPa | - | - | - | - |
| 1788043936 | 27.22° C | 86% | 1012.2 hPa | - | - | - | - |
| 1788043036 | 27.22° C | 86% | 1012.1 hPa | - | - | - | - |
| 1788042135 | 27.78° C | 86% | 1011.9 hPa | - | - | - | - |
* Rain since midnight (hover to see other rain measurements)
** Current wind speed in m/s (hover to see current wind gust speed)